Change the Weather History Date:

Friday, May 2, 2014

  Actual Average Record
Temperature  
Mean Temperature 51 °F -  
Max Temperature 62 °F 60 °F 73 °F (1999)
Min Temperature 40 °F 37 °F 22 °F (2013)
Degree Days  
Heating Degree Days 14    
Growing Degree Days 1 (Base 50)    
Moisture  
Dew Point 38 °F    
Average Humidity 67    
Maximum Humidity 100    
Minimum Humidity 35    
Precipitation  
Precipitation 0.02 in - - ()
Sea Level Pressure  
Sea Level Pressure 29.70 in    
Wind  
Wind Speed 12 mph (NW)    
Max Wind Speed 26 mph    
Max Gust Speed 36 mph    
Visibility 10 miles    
Events Rain    
Averages and records for this station are not official NWS values.
T = Trace of Precipitation, MM = Missing Value Source: NWS Daily Summary

Daily Weather History Graph

Daily Weather History Graph

Search for Another Location

Airport or City:

Trip Planner

Search our weather history database for the weather conditions in past years. The results will help you decide how hot, cold, wet, or windy it might be!

Date:

Astronomy

May. 02, 2014 Rise Set
Actual Time 6:09 AM CDT 8:44 PM CDT
Civil Twilight 5:35 AM CDT 9:19 PM CDT
Nautical Twilight 4:51 AM CDT 10:03 PM CDT
Astronomical Twilight 4:00 AM CDT 10:55 PM CDT
Moon 8:43 AM CDT (5/2) No Moon Set
Length of Visible Light 15h 44m
Length of Day
14h 34m
Waxing Crescent, 12% of the Moon is Illuminated
May 2
Waxing Crescent
May 6
First Quarter
May 14
Full
May 21
Last Quarter
May 28
New

Hourly Weather History & Observations

Time (CDT) Temp. Windchill Dew Point Humidity Pressure Visibility Wind Dir Wind Speed Gust Speed Precip Events Conditions
12:58 AM 47.3 °F - 37.2 °F 68% 29.73 in 10.0 mi SSW 8.1 mph - N/A   Clear
1:58 AM 47.3 °F - 36.9 °F 67% 29.71 in 10.0 mi SW 6.9 mph - N/A   Mostly Cloudy
2:58 AM 48.0 °F - 35.1 °F 61% 29.68 in 10.0 mi SSW 8.1 mph - N/A   Mostly Cloudy
2:59 AM 48.2 °F - 33.8 °F 58% 29.64 in 10.0 mi SSW 8.1 mph - N/A Rain Light Rain
3:17 AM 46.4 °F 41.9 °F 39.2 °F 76% 29.63 in 10.0 mi South 9.2 mph - N/A   Overcast
3:58 AM 46.9 °F - 36.0 °F 66% 29.62 in 10.0 mi South 10.4 mph - 0.00 in   Overcast
4:17 AM 46.4 °F 42.9 °F 37.4 °F 71% 29.59 in 10.0 mi SSW 6.9 mph - N/A   Overcast
4:18 AM 46.4 °F 43.5 °F 37.4 °F 71% 29.60 in 10.0 mi SW 5.8 mph - N/A Rain Light Rain
4:23 AM 46.4 °F 41.5 °F 39.2 °F 76% 29.59 in 8.0 mi South 10.4 mph - N/A Rain Light Rain
4:33 AM 44.6 °F 39.7 °F 39.2 °F 81% 29.59 in 10.0 mi South 9.2 mph - N/A Rain Light Rain
4:34 AM 44.6 °F 40.2 °F 39.2 °F 81% 29.59 in 10.0 mi South 8.1 mph - N/A   Overcast
4:58 AM 42.6 °F 38.4 °F 37.4 °F 82% 29.62 in 10.0 mi SSW 6.9 mph - 0.01 in   Mostly Cloudy
5:58 AM 43.9 °F 37.5 °F 39.6 °F 85% 29.61 in 10.0 mi NNW 12.7 mph - N/A   Overcast
6:58 AM 44.1 °F 36.8 °F 42.1 °F 93% 29.66 in 10.0 mi North 16.1 mph 28.8 mph N/A   Overcast
7:33 AM 46.4 °F 39.5 °F 42.8 °F 87% 29.64 in 10.0 mi North 17.3 mph 24.2 mph N/A   Overcast
7:58 AM 46.0 °F 38.3 °F 40.6 °F 81% 29.68 in 10.0 mi North 20.7 mph 33.4 mph N/A   Mostly Cloudy
8:55 AM 48.2 °F - 41.0 °F 76% 29.67 in 10.0 mi North 23.0 mph 28.8 mph N/A   Light Drizzle
8:58 AM 48.2 °F - 41.0 °F 76% 29.70 in 10.0 mi North 20.7 mph 28.8 mph N/A   Light Drizzle
9:19 AM 48.2 °F - 41.0 °F 76% 29.68 in 10.0 mi North 19.6 mph 28.8 mph N/A   Mostly Cloudy
9:58 AM 51.4 °F - 41.2 °F 68% 29.70 in 10.0 mi North 19.6 mph 27.6 mph 0.00 in   Partly Cloudy
10:58 AM 55.0 °F - 39.6 °F 56% 29.70 in 10.0 mi NNW 20.7 mph 31.1 mph N/A   Clear
11:58 AM 58.1 °F - 37.0 °F 45% 29.70 in 10.0 mi NNW 18.4 mph 32.2 mph N/A   Scattered Clouds
12:58 PM 59.0 °F - 36.3 °F 43% 29.70 in 10.0 mi North 26.5 mph 33.4 mph N/A   Scattered Clouds
1:58 PM 60.8 °F - 34.5 °F 37% 29.69 in 10.0 mi NNW 25.3 mph 32.2 mph N/A   Mostly Cloudy
2:58 PM 59.5 °F - 34.3 °F 39% 29.70 in 10.0 mi North 21.9 mph 26.5 mph N/A   Mostly Cloudy
3:53 PM 60.8 °F - 35.6 °F 39% 29.69 in 10.0 mi NNE 23.0 mph 33.4 mph N/A   Scattered Clouds
3:58 PM 60.3 °F - 36.0 °F 40% 29.71 in 10.0 mi North 21.9 mph 33.4 mph N/A   Scattered Clouds
4:58 PM 58.3 °F - 30.6 °F 35% 29.73 in 10.0 mi North 21.9 mph 35.7 mph N/A   Clear
5:58 PM 58.3 °F - 34.3 °F 41% 29.74 in 10.0 mi NNE 19.6 mph 26.5 mph N/A   Clear
6:58 PM 55.9 °F - 33.3 °F 42% 29.75 in 10.0 mi NNE 18.4 mph 24.2 mph N/A   Clear
7:58 PM 52.0 °F - 33.4 °F 49% 29.77 in 10.0 mi North 10.4 mph - N/A   Partly Cloudy
8:48 PM 50.0 °F - 33.8 °F 54% 29.76 in 10.0 mi North 19.6 mph 34.5 mph N/A   Overcast
8:49 PM 50.0 °F - 35.6 °F 58% 29.77 in 10.0 mi NNW 20.7 mph 34.5 mph N/A   Light Drizzle
8:58 PM 47.8 °F - 36.9 °F 66% 29.80 in 10.0 mi NNW 15.0 mph 27.6 mph 0.00 in   Light Drizzle
8:59 PM 46.4 °F 39.8 °F 37.4 °F 71% 29.77 in 10.0 mi NNW 16.1 mph 27.6 mph N/A   Mostly Cloudy
9:58 PM 45.0 °F 41.2 °F 37.4 °F 75% 29.81 in 10.0 mi NNW 6.9 mph - 0.00 in   Scattered Clouds
10:10 PM 44.6 °F 40.7 °F 37.4 °F 76% 29.78 in 10.0 mi NW 6.9 mph - N/A Rain Light Rain
10:50 PM 44.6 °F 41.4 °F 41.0 °F 87% 29.77 in 9.0 mi WSW 5.8 mph - N/A Rain Light Rain
10:58 PM 43.7 °F 39.7 °F 41.4 °F 91% 29.79 in 9.0 mi WSW 6.9 mph - 0.01 in Rain Light Rain
11:01 PM 42.8 °F 38.6 °F 42.8 °F 100% 29.76 in 10.0 mi WSW 6.9 mph - N/A   Overcast
11:58 PM 40.3 °F 37.1 °F 38.5 °F 93% 29.79 in 10.0 mi WNW 4.6 mph - 0.00 in   Clear